SCP
0 0 0 0 0 0 0 0 0 0 0 0 0 0 0 0 0 0 0 0 0 0 0 0 0 0 0 0 0 0 0 0 0 0 0 0 0 0 0 0 0 0 0
0 0 0 0 0 0 0 0 0 0 0 0 0 0 0 0 0 0 0 0 0 0 0 0 0 0 0 0 0 0 0 0 0 0 0 0 0 0 0 0 0 0 0
0 0 0 0 0 0 0 0 0 0 0 0 0 0 0 0 0 0 0 0 0 0 0 0 0 0 0 0 0 0 0 0 0 0 0 0 0 0 0 0 0 0 0
0 0 0 0 0 0 0 0 0 0 0 0 0 0 0 0 0 0 0 0 0 0 0 0 0 0 0 0 0 0 0 0 0 0 0 0 0 0 0 0 0 0 0
0 0 0 0 0 0 0 0 0 0 0 0 0 0 0 0 0 0 0 0 0 0 0 0 0 0 0 0 0 0 0 0 0 0 0 0 0 0 0 0 0 0 0
0 0 0 0 0 0 0 0 0 0 0 0 0 0 0 0 0 0 0 0 0 0 0 0 0 0 0 0 0 0 0 0 0 0 0 0 0 0 0 0 0 0 0
0 0 0 0 0 0 0 0 0 0 0 0 0 0 0 0 0 0 0 0 0 0 0 0 0 0 0 0 0 0 0 0 0 0 0 0 0 0 0 0 0 0 0
0 0 0 0 0 0 0 0 0 0 0 0 0 0 0 0 0 0 0 0 0 0 0 0 0 0 0 0 0 0 0 0 0 0 0 0 0 0 0 0 0 0 0
0 0 0 0 0 0 0 0 0 0 0 0 0 0 0 0 0 0 0 0 0 0 0 0 0 0 0 0 0 0 0 0 0 0 0 0 0 0 0 0 0 0 0
0 0 0 0 0 0 0 0 0 0 0 0 0 0 0 0 0 0 0 0 0 0 0 0 0 0 0 0 0 0 0 0 0 0 0 0 0 0 0 0 0 0 0
0 0 0 0 0 0 0 0 0 0 0 0 0 0 0 0 0 0 0 0 0 0 0 0 0 0 0 0 0 0 0 0 0 0 0 0 0 0 0 0 0 0 0
0 0 0 0 0 0 0 0 0 0 0 0 0 0 0 0 0 0 0 0 0 0 0 0 0 0 0 0 0 0 0 0 0 0 0 0 0 0 0 0 0 0 0
0 0 0 0 0 0 0 0 0 0 0 0 0 0 0 0 0 0 0 0 0 0 0 0 0 0 0 0 0 0 0 0 0 0 0 0 0 0 0 0 0 0 0
0 0 0 0 0 0 0 0 0 0 0 0 0 0 0 0 0 0 0 0 0 0 0 0 0 0 0 0 0 0 0 0 0 0 0 0 0 0 0 0 0 0 0
0 0 0 0 0 0 0 0 0 0 0 0 0 0 0 0 0 0 0 0 0 0 0 0 0 0 0 0 0 0 0 0 0 0 0 0 0 0 0 0 0 0 0
0 0 0 0 0 0 0 0 0 0 0 0 0 0 0 0 0 0 0 0 0 0 0 0 0 0 0 0 0 0 0 0 0 0 0 0 0 0 0 0 0 0 0
0 0 0 0 0 0 0 0 0 0 0 0 0 0 0 0 0 0 0 0 0 0 0 0 0 0 0 0 0 0 0 0 0 0 0 0 0 0 0 0 0 0 0
0 0 0 0 0 0 0 0 0 0 0 0 0 0 0 0 0 0 0 0 0 0 0 0 0 0 0 0 0 0 0 0 0 0 0 0 0 0 0 0 0 0 0
0 0 0 0 0 0 0 0 0 0 0 0 0 0 0 0 0 0 0 0 0 0 0 0 0 0 0 0 0 0 0 0 0 0 0 0 0 0 0 0 0 0 0
0 0 0 0 0 0 0 0 0 0 0 0 0 0 0 0 0 0 0 0 0 0 0 0 0 0 0 0 0 0 0 0 0 0 0 0 0 0 0 0 0 0 0
0 0 0 0 0 0 0 0 0 0 0 0 0 0 0 0 0 0 0 0 0 0 0 0 0 0 0 0 0 0 0 0 0 0 0 0 0 0 0 0 0 0 0
0 0 0 0 0 0 0 0 0 0 0 0 0 0 0 0 0 0 0 0 0 0 0 0 0 0 0 0 0 0 0 0 0 0 0 0 0 0 0 0 0 0 0
0 0 0 0 0 0 0 0 0 0 0 0 0 0 0 0 0 0 0 0 0 0 0 0 0 0 0 0 0 0 0 0 0 0 0 0 0 0 0 0 0 0 0
0 0 0 0 0 0 0 0 0 0 0 0 0 0 0 0 0 0 0 0 0 0 0 0 0 0 0 0 0 0 0 0 0 0 0 0 0 0 0 0 0 0 0
0 0 0 0 0 0 0 0 0 0 0 0 0 0 0 0 0 0 0 0 0 0 0 0 0 0 0 0 0 0 0 0 0 0 0 0 0 0 0 0 0 0 0
0 0 0 0 0 0 0 0 0 0 0 0 0 0 0 0 0 0 0 0 0 0 0 0 0 0 0 0 0 0 0 0 0 0 0 0 0 0 0 0 0 0 0
Wind_Speed
3 2 1 1 2 1 2 2 2 2 2 2 2 2 4 5 5 5 4 12 12 11 12 12 12 12 12 11 10 11 11 10 10 9 9 10 9 9 8 8 8 8 8
3 2 2 2 2 2 2 2 2 2 2 1 1 2 4 5 5 6 4 8 13 12 12 12 12 12 12 12 11 11 11 11 10 10 10 10 10 10 9 9 9 9 8
3 3 2 2 2 2 2 1 2 1 1 1 1 2 3 4 5 6 5 4 6 11 13 13 12 13 13 13 12 12 11 11 10 10 10 10 10 10 9 10 10 10 9
3 2 2 2 2 1 1 2 1 1 1 1 1 1 2 2 4 5 5 5 4 5 9 13 12 12 13 13 13 13 12 11 11 11 11 11 10 10 9 9 10 10 10
3 2 2 1 1 1 1 2 1 1 1 1 2 1 1 2 3 5 5 5 5 5 4 8 12 12 14 14 14 14 13 12 11 12 12 12 12 11 10 10 10 10 10
2 2 1 1 1 1 0 1 1 1 1 1 1 0 1 2 2 3 5 5 5 6 6 6 5 8 12 12 12 13 13 12 12 12 12 12 12 11 11 11 11 11 11
2 2 1 1 1 1 1 1 1 1 1 1 1 1 2 1 1 2 2 3 3 4 4 4 3 3 4 9 10 10 11 11 11 10 10 10 10 10 10 10 10 10 10
2 2 2 2 1 1 1 1 1 1 1 1 2 1 1 2 2 1 1 2 2 2 3 4 3 3 3 2 4 8 9 9 9 9 8 8 8 8 8 9 9 9 9
2 1 2 2 2 2 1 2 2 2 1 1 1 3 2 2 1 2 0 1 1 1 1 2 2 2 3 2 2 4 7 6 7 8 7 7 7 7 8 8 8 8 8
1 1 1 2 2 1 1 2 2 2 2 1 1 1 2 3 2 1 2 1 1 1 1 1 1 1 1 1 1 2 3 3 4 6 6 5 5 5 6 7 8 8 8
0 1 1 1 1 1 1 1 1 1 2 2 1 1 1 1 2 2 1 1 1 1 1 2 2 1 1 1 1 2 2 2 2 2 3 3 4 4 4 5 7 7 7
1 1 1 1 1 1 1 1 1 1 1 2 1 1 2 1 2 2 2 1 0 0 1 2 2 2 2 2 2 5 5 4 3 2 2 1 0 1 2 3 4 4 5
1 1 1 1 1 1 1 1 1 1 1 1 1 1 1 1 2 2 3 2 1 0 1 2 2 2 3 3 3 8 8 8 8 7 6 5 4 3 2 2 2 2 3
1 1 1 1 1 1 2 1 1 1 2 1 1 1 1 0 1 2 3 3 2 1 1 2 2 3 3 3 5 7 6 10 10 9 9 9 8 7 6 5 5 4 3
1 1 2 2 3 3 2 2 2 2 2 2 2 2 1 0 0 0 2 3 4 2 1 1 1 2 2 3 5 4 5 10 11 11 10 10 10 10 10 9 8 7 6
2 2 2 3 3 3 3 3 3 3 3 3 2 2 2 1 1 1 1 1 2 3 2 1 1 1 2 4 6 5 6 11 11 11 11 11 11 12 11 11 11 10 9
3 3 3 4 4 4 3 4 3 3 4 4 3 3 2 1 1 1 1 2 2 3 4 2 2 2 3 4 4 4 4 4 5 11 11 11 11 12 12 11 11 11 10
3 3 3 4 4 4 4 4 4 4 4 4 3 4 3 3 3 2 2 3 3 3 5 5 2 2 3 3 4 4 4 5 4 9 10 10 10 11 11 11 11 11 11
4 4 4 4 4 4 4 4 4 4 4 3 3 4 3 4 4 3 3 3 3 4 3 5 3 2 2 2 4 4 5 3 4 6 8 9 9 9 10 10 10 10 10
5 5 5 5 4 4 4 4 4 4 4 4 4 4 4 4 3 3 4 4 4 5 4 4 3 2 2 2 3 3 3 2 3 3 5 6 7 9 9 9 9 10 10
6 5 5 5 4 4 4 4 4 4 4 4 5 4 5 6 7 4 4 3 5 4 4 4 3 3 2 2 2 2 3 2 2 2 2 2 3 3 4 5 6 8 8
5 5 5 5 5 4 5 7 5 4 4 4 4 3 4 6 7 8 8 7 6 5 5 4 3 3 2 2 2 3 3 2 1 1 2 1 2 2 2 2 4 6 6
5 5 4 5 4 4 6 7 7 4 4 4 3 3 3 4 5 4 7 9 9 8 7 5 4 3 3 3 3 3 2 2 2 1 2 1 1 1 1 1 3 3 4
4 4 4 4 4 4 6 7 8 5 4 4 3 3 4 3 3 4 5 5 5 5 4 3 3 2 3 3 4 4 4 3 2 1 2 1 0 1 1 1 1 2 2
4 3 3 4 4 3 5 6 6 4 4 4 4 4 4 3 5 6 6 5 5 3 5 6 5 4 4 5 5 4 3 3 1 0 0 2 1 0 1 1 2 1 0
4 4 3 3 3 2 4 6 6 4 4 3 3 3 5 4 5 6 5 5 4 1 2 3 4 4 3 3 4 4 4 4 2 1 1 2 1 1 1 2 1 1 2
Wind_Direction
164 171 188 193 197 192 186 193 223 250 257 259 232 163 156 164 160 163 174 178 179 181 181 182 184 184 184 185 186 189 190 191 193 193 192 191 192 195 196 197 197 194 193
162 164 180 192 200 200 194 195 207 226 244 241 213 163 162 168 171 172 177 184 188 189 190 191 192 194 194 193 195 197 198 198 198 199 200 200 200 203 206 207 206 205 204
162 165 177 200 208 200 189 192 206 216 237 236 208 173 167 175 175 177 178 185 192 199 198 199 200 201 202 202 202 205 207 206 204 203 204 206 206 207 211 212 210 210 210
166 159 169 209 213 196 188 193 192 182 235 226 221 216 179 180 181 183 185 188 190 201 207 206 206 206 207 209 209 210 213 213 210 207 206 207 209 209 212 214 214 214 212
162 154 172 213 212 186 196 209 177 173 202 228 224 220 204 191 190 190 190 191 193 196 200 212 215 213 214 215 214 214 216 216 215 215 214 212 213 214 216 218 218 216 215
163 154 178 216 179 141 197 198 188 185 189 203 220 245 248 226 203 195 194 189 192 196 199 209 215 220 221 222 222 222 221 219 218 217 216 217 219 218 219 221 222 221 220
163 155 176 187 163 168 212 199 166 169 222 142 75 349 332 300 235 206 185 175 189 195 193 199 199 207 224 227 227 229 228 225 220 216 215 217 220 219 219 221 222 222 223
173 172 181 182 184 182 203 209 165 164 239 151 136 116 344 337 331 262 152 175 194 186 184 191 197 201 208 214 217 223 229 227 226 217 212 212 218 221 223 225 223 223 224
176 172 162 168 178 176 198 219 195 178 205 247 158 149 159 229 297 335 6 119 130 143 173 171 187 202 209 218 228 229 222 221 223 224 221 216 216 218 221 225 225 226 226
187 177 169 165 176 179 196 218 186 177 167 203 243 195 179 170 164 287 344 45 87 103 121 143 170 178 185 197 165 172 197 209 216 226 225 220 219 219 222 228 230 231 233
248 199 185 178 185 189 201 215 180 160 165 175 188 192 169 162 152 156 232 319 24 44 87 97 87 86 85 101 143 117 130 178 200 224 232 232 232 234 236 240 243 238 236
299 284 180 171 187 181 187 188 164 144 157 163 173 164 159 170 183 160 185 207 189 16 62 68 72 70 70 59 82 87 83 78 74 67 66 60 228 244 266 272 258 248 244
258 257 196 172 175 179 154 139 114 112 130 138 157 160 154 181 163 151 151 169 160 117 60 48 46 58 69 61 64 75 73 70 64 60 56 56 54 54 49 28 358 316 271
223 217 135 98 76 81 85 77 77 88 86 94 87 100 113 171 155 157 157 150 138 78 56 58 45 53 69 67 64 75 72 74 72 67 63 62 61 59 59 53 46 39 35
124 80 79 72 66 72 75 79 75 67 73 73 64 64 73 21 84 165 155 157 152 154 131 65 74 52 75 81 75 76 80 80 79 75 71 68 65 63 61 59 56 53 51
71 74 77 76 70 65 65 73 69 60 66 53 59 59 50 33 42 63 126 137 140 146 138 104 93 96 99 97 88 77 80 85 80 79 76 73 69 66 63 60 57 54 54
73 70 75 75 70 65 69 75 70 66 67 54 47 53 39 44 62 52 70 94 105 118 124 108 70 73 87 95 89 78 74 71 75 78 76 74 71 69 65 61 57 54 52
81 83 79 75 69 65 68 80 77 66 66 61 48 50 36 52 56 54 75 91 102 109 126 126 103 76 85 113 108 98 88 83 76 78 78 75 72 69 65 61 58 54 50
89 80 80 76 68 64 69 76 79 73 68 61 54 60 51 62 58 56 71 85 94 100 103 120 113 86 79 97 101 93 87 75 83 81 77 71 69 69 65 62 61 57 53
94 84 76 74 70 66 66 75 79 75 69 61 55 58 57 65 67 64 76 84 95 94 96 104 102 87 79 83 99 103 92 69 75 75 71 68 61 60 60 62 62 60 54
96 89 83 72 64 65 66 79 85 83 75 65 55 52 60 72 75 73 89 97 104 103 104 107 106 98 94 104 119 122 114 101 65 59 64 48 44 35 32 43 59 62 58
90 85 81 78 68 64 75 83 93 85 79 78 72 59 60 55 63 68 77 85 105 117 121 116 113 123 135 135 132 130 125 121 94 352 92 45 53 35 6 17 52 64 62
99 91 82 78 71 63 75 84 91 94 81 78 77 69 68 54 55 73 75 73 70 84 109 130 129 141 153 171 152 133 135 132 148 184 115 54 2 360 329 25 57 68 65
109 104 94 84 74 60 74 89 94 87 80 70 72 82 82 55 58 89 92 77 65 57 79 103 135 155 158 165 161 157 157 127 82 64 103 122 290 300 326 340 15 78 67
113 112 110 97 83 56 73 97 100 94 85 68 59 69 82 73 69 89 92 88 73 50 64 79 89 95 113 127 133 115 109 114 107 298 88 127 183 278 317 298 290 265 314
126 122 109 106 105 81 83 109 114 108 100 83 55 50 65 80 83 89 97 102 95 60 57 54 48 40 54 79 106 136 148 142 141 198 232 138 161 118 340 293 275 275 285